Regional Weather Roundup
Issued by NWS Cleveland, OH

Home | Current Version | Previous Version | Graphics & Text | Print | Product List | Glossary On
Versions: 1 2 3 4 5 6 7 8 9 10 11 12 13 14 15 16 17 18 19 20 21 22 23 24 25 26 27 28 29 30 31 32 33 34 35 36 37 38 39 40 41 42 43 44 45 46 47 48 49 50
000
ASUS41 KCLE 230412
RWRCLE
OHIO REGIONAL WEATHER ROUNDUP
NATIONAL WEATHER SERVICE WILMINGTON, OH
1200 AM EDT MON APR 23 2018

NOTE: "FAIR" INDICATES FEW OR NO CLOUDS BELOW 12,000 FEET WITH NO
SIGNIFICANT WEATHER AND/OR OBSTRUCTIONS TO VISIBILITY.

OHZ001>008-015>018-024>027-034-035-043-044-230500-
   NORTHWEST OHIO

CITY           SKY/WX    TMP DP  RH WIND       PRES   REMARKS
DEFIANCE       FAIR      44  25  47 NE9       30.26F
FINDLAY        FAIR      49  22  34 NE14      30.23F
TOLEDO EXPRESS FAIR      44  28  53 E8        30.28F
TOLEDO EXEC    FAIR      44  30  57 NE7       30.29F
LIMA           FAIR      44  26  49 NE8       30.23F
$$

OHZ009>014-019>023-028>033-038-089-230500-
   NORTHEAST OHIO

CITY           SKY/WX    TMP DP  RH WIND       PRES   REMARKS
CLE-HOPKINS    FAIR      49  23  36 NE5       30.29F
CLE-LAKEFRONT  FAIR      46  33  60 NE6       30.27F
CUY CO. ARPT   NOT AVBL
LORAIN-ELYRIA  FAIR      44  23  43 NE13      30.27F
ASHTABULA      FAIR      45  22  40 E3        30.31F
AKRON-CANTON   FAIR      49  25  39 NE10      30.26F
WOOSTER        FAIR      47  27  45 CALM      30.25F
MANSFIELD      FAIR      45  26  47 NE7       30.24F
YOUNGSTOWN     FAIR      46  26  45 E7        30.28S
$$

OHZ042-051>053-060>062-070>072-077>081-230500-
  SOUTHWEST OHIO

CITY           SKY/WX    TMP DP  RH WIND       PRES   REMARKS
CINC-COVINGTON MOCLDY    58  30  34 E15       30.13F
CINC-LUNKEN    FAIR      51  38  60 CALM      30.14F
HAMILTON       FAIR      51  40  65 E3        30.16F
DAYTON         FAIR      49  34  56 NE12      30.19F
WRIGHT-PAT AFB FAIR      51  34  53 NE6       30.18S
DAYTON GENERAL FAIR      56  29  35 NE10      30.16R
WILMINGTON     FAIR      53  34  48 E8        30.16F
$$

OHZ036-037-039>041-045>050-054>059-063>069-073>076-082>088-230500-
  CENTRAL AND SOUTHEAST OHIO

CITY           SKY/WX    TMP DP  RH WIND       PRES   REMARKS
COLUMBUS       FAIR      54  28  36 NE8       30.19F
OSU AIRPORT    FAIR      50  32  50 NE9       30.20F
BOLTON FIELD   FAIR      51  32  48 NE8       30.19F
RICKENBACK AFB FAIR      49  32  51 NE8       30.18F
NEWARK         FAIR      49  32  52 CALM      30.20S
MARION         FAIR      43  28  55 NE10      30.23F
LANCASTER      FAIR      55  33  43 E5        30.19F
ZANESVILLE     NOT AVBL
NEW PHILLY     FAIR      49  33  54 CALM      30.24F
$$




USA.gov is the U.S. government's official web portal to all federal, state and local government web resources and services.